Location: Quedlinburg
(51.7921°N, 11.1414°E)
Time: 05:05:18
(UTC+02:00)

STRAND 1 - Pass Details

Date: 20 March 2026
Orbit: 761 x 775 km, 98.4° (Epoch: 16 April)

Event Time Altitude Azimuth Distance (km) Brightness Sun altitude
Rises 03:03:10 0° 103° (ESE) 3,240 ? -28.4°
Reaches altitude 10° 03:06:41 10° 77° (ENE) 2,315 ? -28.0°
Maximum altitude 03:09:02 13° 50° (NE) 2,088 ? -27.8°
Drops below altitude 10° 03:11:23 10° 22° (NNE) 2,317 ? -27.5°
Sets 03:14:53 0° 357° (N) 3,246 ? -27.1°
